TimePST,TemperatureF,Dew PointF,Humidity,Sea Level PressureIn,VisibilityMPH,Wind Direction,Wind SpeedMPH,Gust SpeedMPH,PrecipitationIn,Events,Conditions,WindDirDegrees,DateUTC
12:15 AM,46.4,44.6,93,30.19,0.8,East,5.8,-,N/A,,Overcast,90,2013-02-14 08:15:00
12:35 AM,46.4,44.6,93,30.19,0.8,East,5.8,-,N/A,,Overcast,90,2013-02-14 08:35:00
12:55 AM,46.4,44.6,93,30.19,1.2,East,5.8,-,N/A,,Overcast,90,2013-02-14 08:55:00
1:15 AM,46.4,44.6,93,30.19,1.2,ENE,3.5,-,N/A,,Overcast,70,2013-02-14 09:15:00
1:35 AM,44.6,44.6,100,30.19,0.5,ENE,4.6,-,N/A,,Overcast,60,2013-02-14 09:35:00
1:55 AM,44.6,42.8,93,30.19,0.5,ENE,5.8,-,N/A,,Overcast,70,2013-02-14 09:55:00
2:15 AM,44.6,42.8,93,30.18,0.8,East,5.8,-,N/A,,Overcast,90,2013-02-14 10:15:00
2:35 AM,44.6,42.8,93,30.18,0.5,East,4.6,-,N/A,,Overcast,80,2013-02-14 10:35:00
2:55 AM,44.6,42.8,93,30.18,0.5,ENE,3.5,-,N/A,,Overcast,70,2013-02-14 10:55:00
3:15 AM,44.6,42.8,93,30.18,0.8,East,4.6,-,N/A,,Overcast,90,2013-02-14 11:15:00
3:35 AM,44.6,42.8,93,30.18,0.5,East,4.6,-,N/A,,Overcast,80,2013-02-14 11:35:00
4:15 AM,42.8,41.0,93,30.18,0.2,East,4.6,-,N/A,,Overcast,90,2013-02-14 12:15:00
4:35 AM,42.8,39.2,87,30.18,0.2,East,5.8,-,N/A,,Overcast,80,2013-02-14 12:35:00
4:55 AM,41.0,39.2,93,30.17,0.5,East,5.8,-,N/A,,Overcast,100,2013-02-14 12:55:00
5:15 AM,41.0,39.2,93,30.16,0.8,East,6.9,-,N/A,,Overcast,90,2013-02-14 13:15:00
5:35 AM,41.0,39.2,93,30.16,1.2,East,6.9,-,N/A,,Overcast,90,2013-02-14 13:35:00
5:55 AM,41.0,39.2,93,30.16,4.0,East,6.9,-,N/A,,Overcast,90,2013-02-14 13:55:00
6:15 AM,39.2,37.4,93,30.16,7.0,East,4.6,-,N/A,,Overcast,90,2013-02-14 14:15:00
6:35 AM,39.2,39.2,100,30.16,5.0,East,6.9,-,N/A,,Overcast,90,2013-02-14 14:35:00
6:55 AM,39.2,39.2,100,30.16,1.2,ESE,4.6,-,N/A,,Overcast,120,2013-02-14 14:55:00
7:15 AM,39.2,37.4,93,30.16,5.0,East,5.8,-,N/A,,Overcast,100,2013-02-14 15:15:00
7:35 AM,39.2,37.4,93,30.17,7.0,East,6.9,-,N/A,,Mostly Cloudy,90,2013-02-14 15:35:00
7:55 AM,41.0,39.2,93,30.17,10.0,East,6.9,-,N/A,,Partly Cloudy,100,2013-02-14 15:55:00
8:15 AM,42.8,39.2,87,30.18,10.0,ESE,4.6,-,N/A,,Clear,120,2013-02-14 16:15:00
8:35 AM,42.8,39.2,87,30.18,10.0,East,8.1,-,N/A,,Clear,90,2013-02-14 16:35:00
8:55 AM,46.4,39.2,76,30.19,10.0,East,5.8,-,N/A,,Clear,100,2013-02-14 16:55:00
9:15 AM,48.2,39.2,71,30.19,10.0,SE,8.1,-,N/A,,Clear,130,2013-02-14 17:15:00
9:35 AM,50.0,39.2,66,30.19,10.0,East,5.8,-,N/A,,Clear,100,2013-02-14 17:35:00
9:55 AM,51.8,41.0,67,30.19,10.0,East,4.6,-,N/A,,Clear,100,2013-02-14 17:55:00
10:15 AM,55.4,41.0,58,30.20,10.0,Calm,Calm,-,N/A,,Clear,0,2013-02-14 18:15:00
10:35 AM,57.2,39.2,51,30.19,10.0,East,3.5,-,N/A,,Clear,100,2013-02-14 18:35:00
10:55 AM,60.8,39.2,45,30.19,10.0,Calm,Calm,-,N/A,,Clear,0,2013-02-14 18:55:00
11:15 AM,62.6,37.4,39,30.19,10.0,Calm,Calm,-,N/A,,Clear,0,2013-02-14 19:15:00
11:35 AM,64.4,39.2,40,30.17,10.0,WSW,5.8,-,N/A,,Clear,240,2013-02-14 19:35:00
11:55 AM,66.2,41.0,40,30.16,10.0,West,3.5,-,N/A,,Clear,270,2013-02-14 19:55:00
12:15 PM,68.0,42.8,40,30.15,10.0,West,4.6,-,N/A,,Clear,280,2013-02-14 20:15:00
12:35 PM,66.2,42.8,43,30.14,10.0,WSW,3.5,-,N/A,,Clear,240,2013-02-14 20:35:00
12:55 PM,66.2,42.8,43,30.14,10.0,West,15.0,-,N/A,,Clear,280,2013-02-14 20:55:00
1:15 PM,64.4,42.8,45,30.13,10.0,WNW,12.7,-,N/A,,Clear,290,2013-02-14 21:15:00
1:35 PM,64.4,42.8,45,30.12,10.0,WNW,11.5,-,N/A,,Clear,290,2013-02-14 21:35:00
1:55 PM,66.2,44.6,46,30.11,10.0,West,11.5,-,N/A,,Clear,270,2013-02-14 21:55:00
2:15 PM,66.2,42.8,43,30.11,10.0,West,10.4,-,N/A,,Clear,270,2013-02-14 22:15:00
2:35 PM,66.2,41.0,40,30.12,10.0,West,11.5,-,N/A,,Clear,280,2013-02-14 22:35:00
2:55 PM,68.0,42.8,40,30.11,10.0,WNW,10.4,-,N/A,,Clear,290,2013-02-14 22:55:00
3:15 PM,68.0,42.8,40,30.12,10.0,West,10.4,-,N/A,,Clear,280,2013-02-14 23:15:00
3:35 PM,66.2,39.2,37,30.12,10.0,West,10.4,-,N/A,,Clear,270,2013-02-14 23:35:00
3:55 PM,62.6,39.2,42,30.12,10.0,West,11.5,-,N/A,,Clear,270,2013-02-14 23:55:00
4:15 PM,62.6,39.2,42,30.12,10.0,West,9.2,-,N/A,,Clear,270,2013-02-15 00:15:00
4:35 PM,62.6,37.4,39,30.12,10.0,West,6.9,-,N/A,,Clear,270,2013-02-15 00:35:00
4:55 PM,60.8,37.4,42,30.12,10.0,West,6.9,-,N/A,,Clear,270,2013-02-15 00:55:00
5:15 PM,59.0,39.2,48,30.12,10.0,WSW,6.9,-,N/A,,Clear,250,2013-02-15 01:15:00
5:35 PM,57.2,39.2,51,30.13,10.0,West,5.8,-,N/A,,Clear,270,2013-02-15 01:35:00
5:55 PM,55.4,37.4,51,30.14,10.0,West,4.6,-,N/A,,Clear,270,2013-02-15 01:55:00
6:15 PM,53.6,39.2,58,30.14,10.0,West,3.5,-,N/A,,Clear,260,2013-02-15 02:15:00
6:35 PM,53.6,39.2,58,30.15,10.0,Calm,Calm,-,N/A,,Clear,0,2013-02-15 02:35:00
6:55 PM,51.8,37.4,58,30.15,10.0,Calm,Calm,-,N/A,,Clear,0,2013-02-15 02:55:00
7:15 PM,51.8,39.2,62,30.16,10.0,Calm,Calm,-,N/A,,Clear,0,2013-02-15 03:15:00
7:35 PM,50.0,41.0,71,30.16,10.0,Calm,Calm,-,N/A,,Clear,0,2013-02-15 03:35:00
7:55 PM,48.2,37.4,66,30.16,10.0,Calm,Calm,-,N/A,,Clear,0,2013-02-15 03:55:00
8:15 PM,46.4,37.4,71,30.16,10.0,ESE,3.5,-,N/A,,Clear,120,2013-02-15 04:15:00
8:35 PM,46.4,37.4,71,30.17,10.0,East,3.5,-,N/A,,Clear,100,2013-02-15 04:35:00
8:55 PM,44.6,37.4,76,30.18,10.0,East,5.8,-,N/A,,Clear,90,2013-02-15 04:55:00
9:15 PM,46.4,37.4,71,30.18,10.0,East,5.8,-,N/A,,Clear,90,2013-02-15 05:15:00
9:35 PM,44.6,37.4,76,30.19,10.0,East,6.9,-,N/A,,Clear,90,2013-02-15 05:35:00
9:55 PM,44.6,37.4,76,30.18,10.0,East,6.9,-,N/A,,Clear,80,2013-02-15 05:55:00
10:15 PM,44.6,37.4,76,30.18,10.0,East,6.9,-,N/A,,Clear,100,2013-02-15 06:15:00
10:35 PM,44.6,37.4,76,30.18,10.0,East,5.8,-,N/A,,Clear,100,2013-02-15 06:35:00
10:55 PM,44.6,37.4,76,30.18,10.0,East,6.9,-,N/A,,Clear,90,2013-02-15 06:55:00
11:15 PM,44.6,37.4,76,30.18,10.0,East,6.9,-,N/A,,Clear,100,2013-02-15 07:15:00
11:55 PM,44.6,37.4,76,30.18,10.0,East,8.1,-,N/A,,Clear,80,2013-02-15 07:55:00